STARLINK-36501, 67327

Orbit data source: Space-Track

STARLINK-36501, 67327 is a payload satellite owned by SpaceX/Seattle (US) in LEO that was launched on Sun, 04 Jan 2026 UTC via an FALCON 9 launch vehicle from the Air Force Eastern Test Range (AFETR). Payload-class satellites include a variety of spacecraft equipped with specific instruments for various scientific and technological missions. These include communications satellites like Starlink; space stations such as the ISS; scientific satellites like the Hubble; Earth observation satellites from companies like Planet Labs, Umbra, and HawkEye 360; GPS; miniature CubeSats for education and research; and military/defense satellites.

Loading next visibility...
Identifier
67327, 2026-002Y
Orbit
LEO
Country
Flag of USUS
Related business
Manufacturer
SpaceX/Seattle
Mission
Operational Commercial Communications
Bus & Motor
STARLINK V2MO, Unknown motor
Mass
575 kg wet, ~530 kg dry
Launch date (UTC)
2026-01-04 (2 months ago)
Launch vehicle
FALCON 9
Launch site
Air Force Eastern Test Range (AFETR)
Object type
Payload
Rocket body
Debris
Shape & HBR
Box + 2 Pan, 17.7 m
Radar Cross Section
36.964 m²

Expand to show TLE details & history
Last TLE update: 1 day ago

TLE from 1 day ago
0 STARLINK-36501
1 67327U 26002Y   26062.22265950  .00030082  00000-0  10979-2 0  9993
2 67327  43.0041   1.4598 0001659 277.6472  82.4192 15.27590850 10090
Epoch: 2026-03-03T05:20Z
TLE epoch observation values (Epoch: 2026-03-03T05:20:37.780Z)
Latitude
0.00002°
Longitude
120.29759°
Altitude
482.643 km
Speed
7.626 km/s
True Right ascension
00h 05m 50s
True Declination
0° 00' 00"
Sunlit
Object was in daylight at epoch
Visualization orbit readout
Latitude
Unknown
Longitude
Unknown
Altitude
Unknown
Speed
Unknown
Apparent Right ascension
Unknown
Apparent Declination
Unknown
Sunlit
N/A
Visualization observer readout
Local Sidereal Time
09:12:02
Azimuth
Unknown
Elevation
Unknown
Doppler factor
Unknown
Orbital elements
Apogee altitude
486.1 km
Perigee altitude
483.823 km
Semi-major axis
6,863.098 km
Eccentricity
0.00017
Inclination
43.0041°
RAAN
1.4598°
Arg. of periapsis
277.6472°
True anomaly
82.43805°
Mean anomaly
82.4192°
Eccentric anomaly
82.42862°
Mean motion
3.81736 °/min
Orbital period
94.31 mins
BSTAR
0.0010979
Loading maneuver chart data...
Computing Atmospheric mass density...
Loading historical data...
Loading historical data...
Loading historical data...
Loading historical data...
Loading historical data...
Loading historical data...
Loading historical data...

Documentation

Showing up to 5 results
|